カタログに戻る

COSMOS 249 DEB *

運用中LEO
NORAD 3790·DEBRIS·🇷🇺 Russia

打ち上げ Oct 20, 1968 から Baikonur Cosmodrome

Loading…

次のパス (今後24時間)

TLE

最新Source: Space-Track

元期: Sep 13, 2026, 21:22 UTC

1  3790U 68091AX  26256.89036469  .00000225  00000-0  12954-3 0  9992
2  3790  62.9918  77.9801 0717813 324.1916  31.2923 13.40813545779378

AllMySatでCOSMOS 249 DEB *をリアルタイム追跡

Download on the App Store